"Pseudo-MPEC" for C0GP4X5

Created 2023 Mar 19 9:22:05 UT using Find_Orb

Click here for an explanation of pseudo-MPECs

 
 Astrometry: 
     C0GP4X5* C2023 03 14\H4B$+Qg^K/@lrVAstrometry7_redacted;5aq*J`dn*,VOi=f8V00
     C0GP4X5  C2023 03 14Qbp6n8u?!ofs%WX:)EBic6MoGW9dw+p_!,-9[M:*mg0JEJi(I1L2V00
     C0GP4X5  C2023 03 14y\#0OAaZ7!5x.OY5Cd(1N-0RPma?h=r$@)SbDgSE#QT,1iOOL:#YV00
     C0GP4X5  C2023 03 14%U/r1JkTBcXbFf$kS26VcjN4clickF#``Z??j(k!,\UNFhkFTo7-V00
     C0GP4X5 mC2023 03 14[(ErZs`QFAe?:UG`1TBf\B.MibwZhereJXbB#5VQu7\B2G;L#=24V00
     C0GP4X5 mC2023 03 14K/T-+=[NYX/)jK%H`\y\s5X_\se9jR';a6IFS^u2p*forp`/O.p1V00
     C0GP4X5 mC2023 03 14a,^vdC37c(;.CxFHQ*w='gak=Ia(1mg-explanation1dtHM!*h/V00

Station data:
(V00) Kitt Peak-Bok  (N31.963125 W111.600190)  US/Arizona.  Observers T. A.
   Pruyne, B. M. Africano, E. J. Christensen, G. A. Farneth, D. C. Fuls, A.
   R. Gibbs, A. D. Grauer, H. Gröller, J. A. Johnson, R. A. Kowalski, S. M.
   Larson, G. J. Leonard, D. Rankin, R. L. Seaman, F. C. Shelly, K. W.
   Wierzchoś. 2.25-m reflector + CCD.

Orbital elements:  C0GP4X5
   Perihelion 2023 Jun 12.75212 +/- 11.4 TT = 18:03:03 (JD 2460108.25212)
Epoch 2023 Mar 14.0 TT = JDT 2460017.5   Earth MOID: 0.0091   Ve: 0.0785
M 267.24196905 +/- 19               (J2000 ecliptic)             AutoNEOCP
n   1.02210315 +/- 0.0872           Peri.  291.17788 +/- 16
a   0.97605186 +/- 0.0555           Node   355.90151 +/- 0.27
e   0.2052037 +/- 0.0322            Incl.    9.96726 +/- 1.6
P   0.96/352.21d           H 27.70  G  0.15   U 11.1
q 0.77576231 +/- 0.0489    Q 1.17634141 +/- 0.0793
From 7 observations 2023 Mar. 14 (3.2 hr); mean residual 0".12
Residuals in arcseconds: 
230314 V00  .02+  .01+    230314 V00  .07-  .08+    230314 V00  .15+  .17+    
230314 V00  .15-  .04+    230314 V00  .20-  .09-    
230314 V00  .20+  .12-    230314 V00  .05+  .08-    

Ephemerides (geocentric):
Date (UTC) HH   RA             Dec           delta  r     elong  mag " sig PA
---- --------  ------------   ------------  ------ ------ -----  --- --------
2023 03 19 09  07 28 01.571   +17 05 54.34  .02880 1.0070 112.8 22.4 5960  59
2023 03 19 10  07 26 42.990   +16 54 15.44  .02879 1.0068 112.5 22.4 6079  59
2023 03 19 11  07 25 24.543   +16 42 34.34  .02879 1.0067 112.1 22.4 6199  59
2023 03 19 12  07 24 06.237   +16 30 51.12  .02878 1.0065 111.8 22.4 6320  59
2023 03 19 13  07 22 48.075   +16 19 05.88  .02878 1.0064 111.5 22.4 6441  59
2023 03 19 14  07 21 30.062   +16 07 18.68  .02878 1.0062 111.1 22.4 6563  59
2023 03 19 15  07 20 12.203   +15 55 29.63  .02878 1.0061 110.8 22.4 6685  58
2023 03 19 16  07 18 54.503   +15 43 38.79  .02878 1.0060 110.5 22.4 6808  58
2023 03 19 17  07 17 36.965   +15 31 46.26  .02878 1.0058 110.2 22.5 6931  58
2023 03 19 18  07 16 19.594   +15 19 52.13  .02878 1.0057 109.8 22.5 7055  58
2023 03 19 19  07 15 02.394   +15 07 56.47  .02878 1.0055 109.5 22.5 7180  58
2023 03 19 20  07 13 45.369   +14 55 59.38  .02879 1.0054 109.2 22.5 7304  58
2023 03 19 21  07 12 28.524   +14 44 00.94  .02879 1.0052 108.8 22.5 7429  58
2023 03 19 22  07 11 11.862   +14 32 01.24  .02880 1.0051 108.5 22.5 7555  58
2023 03 19 23  07 09 55.388   +14 20 00.37  .02881 1.0050 108.2 22.5 7680  58
2023 03 20 00  07 08 39.105   +14 07 58.41  .02882 1.0048 107.8 22.5 7806  58
2023 03 20 01  07 07 23.017   +13 55 55.45  .02883 1.0047 107.5 22.5 7933  58
2023 03 20 02  07 06 07.129   +13 43 51.58  .02884 1.0045 107.1 22.6 8059  57
2023 03 20 03  07 04 51.443   +13 31 46.88  .02885 1.0044 106.8 22.6 8185  57
2023 03 20 04  07 03 35.964   +13 19 41.44  .02887 1.0042 106.5 22.6 8312  57
2023 03 20 05  07 02 20.695   +13 07 35.35  .02888 1.0041 106.1 22.6 8439  57
2023 03 20 06  07 01 05.639   +12 55 28.69  .02890 1.0040 105.8 22.6 8565  57
2023 03 20 07  06 59 50.801   +12 43 21.55  .02892 1.0038 105.5 22.6 8692  57
2023 03 20 08  06 58 36.183   +12 31 14.02  .02894 1.0037 105.2 22.6 8819  57
2023 03 20 09  06 57 21.788   +12 19 06.18  .02896 1.0035 104.8 22.6 8946  57
2023 03 20 10  06 56 07.620   +12 06 58.12  .02898 1.0034 104.5 22.6 9072  57
2023 03 20 11  06 54 53.682   +11 54 49.92  .02900 1.0032 104.2 22.7 9199  57
2023 03 20 12  06 53 39.978   +11 42 41.66  .02902 1.0031 103.8 22.7 9325  57
2023 03 20 13  06 52 26.509   +11 30 33.43  .02905 1.0030 103.5 22.7 9451  57
2023 03 20 14  06 51 13.279   +11 18 25.32  .02907 1.0028 103.2 22.7 9577  57
2023 03 20 15  06 50 00.292   +11 06 17.40  .02910 1.0027 102.8 22.7 9703  57
2023 03 20 16  06 48 47.548   +10 54 09.75  .02913 1.0025 102.5 22.7 9828  57
2023 03 20 17  06 47 35.052   +10 42 02.47  .02916 1.0024 102.2 22.7 9954  56
2023 03 20 18  06 46 22.806   +10 29 55.62  .02919 1.0022 101.8 22.8 168'  56
2023 03 20 19  06 45 10.813   +10 17 49.29  .02922 1.0021 101.5 22.8 170'  56
2023 03 20 20  06 43 59.074   +10 05 43.55  .02925 1.0019 101.2 22.8 172'  56
2023 03 20 21  06 42 47.593   +09 53 38.49  .02928 1.0018 100.9 22.8 174'  56
2023 03 20 22  06 41 36.371   +09 41 34.18  .02932 1.0017 100.5 22.8 176'  56
2023 03 20 23  06 40 25.412   +09 29 30.70  .02936 1.0015 100.2 22.8 178'  56
2023 03 21 00  06 39 14.716   +09 17 28.12  .02939 1.0014  99.9 22.8 180'  56
2023 03 21 01  06 38 04.287   +09 05 26.52  .02943 1.0012  99.6 22.8 182'  56
2023 03 21 02  06 36 54.125   +08 53 25.97  .02947 1.0011  99.2 22.9 184'  56
2023 03 21 03  06 35 44.235   +08 41 26.54  .02951 1.0009  98.9 22.9 186'  56
2023 03 21 04  06 34 34.616   +08 29 28.30  .02955 1.0008  98.6 22.9 188'  56
2023 03 21 05  06 33 25.271   +08 17 31.33  .02959 1.0006  98.3 22.9 190'  56
2023 03 21 06  06 32 16.202   +08 05 35.70  .02964 1.0005  97.9 22.9 192'  56
2023 03 21 07  06 31 07.410   +07 53 41.46  .02968 1.0004  97.6 22.9 194'  56
2023 03 21 08  06 29 58.897   +07 41 48.70  .02973 1.0002  97.3 22.9 196'  56